Location: ??????
(55.8274°N, 37.9338°E)
Time: 13:34:56
(UTC+00:00)

IDEFIX/ARIANE 42P - Pass Details

Date: 14 April 2024
Orbit: 783 x 800 km, 98.5° (Epoch: 17 May)

Event Time Altitude Azimuth Distance (km) Brightness Sun altitude
Rises 00:15:25 0° 14° (NNE) 3,288 6.9 -16.1°
Reaches altitude 10° 00:17:47 10° 9° (N) 2,357 5.9 -15.8°
Maximum altitude 00:22:47 50° 295° (WNW) 998 2.9 -15.3°
Enters shadow 00:25:45 23° 231° (SW) 1,612 3.5 -15.0°
